Regional Weather Roundup
Issued by NWS Goodland, KS

Home | Current Version | Previous Version | Text Only | Print | Product List | Glossary On
Versions: 1 2 3 4 5 6 7 8 9 10 11 12 13 14 15 16 17 18 19 20 21 22 23 24 25 26 27 28 29 30 31 32 33 34 35 36 37 38 39 40 41 42 43 44 45 46 47 48 49 50
000
ASUS43 KGLD 290059
RWRGLD

GOODLAND FORECAST AREA HOURLY WEATHER ROUNDUP
NATIONAL WEATHER SERVICE GOODLAND KS
600 PM MST WED JAN 28 2015

...OFFICIAL OBSERVATIONS...

CITY           SKY/WX    TMP DP  RH WIND       PRES   REMARKS
GOODLAND KS    CLEAR     48  33  56 NW16      30.08R
HILL CITY KS   CLEAR     59  31  34 NW16      29.94R
IMPERIAL NEB   MOCLDY    50  35  56 NW21G26   30.05R
MCCOOK NEB     CLEAR     54  28  36 NW18      29.99R
AKRON CO       CLEAR     41  34  76 N16       30.15R
BURLINGTON CO  CLEAR     48  34  58 MISG      30.11R
LIMON CO       CLEAR     41  31  67 N12       30.16R
$$

...UNOFFICIAL OBSERVATIONS...

CITY           SKY/WX    TMP DP  RH WIND       PRES   REMARKS
COLBY KS       CLEAR     54  37  54 NW23      30.04R
GOVE KS          N/A     60  32  34 MISG        N/A
NORTON KS      CLEAR     55  25  30 NW18      29.95R
SHARON SPRINGS   N/A     54  35  48 N16         N/A
KIT CARSON CO    N/A     49  33  54 MISG        N/A
YUMA CO          N/A     45  34  66 N12         N/A
$$


USA.gov is the U.S. government's official web portal to all federal, state and local government web resources and services.